Regional Weather Roundup
Issued by NWS

Home | Current Version | Previous Version | Text Only | Print | Product List | Glossary Off
Versions: 1 2 3 4 5 6 7 8 9 10 11 12 13 14 15 16 17 18 19 20 21 22 23 24 25 26 27 28 29 30 31 32 33 34 35 36 37 38 39 40 41 42 43 44 45 46 47 48 49 50

000
ASUS43 KOAX 271710
RWRNE

WEATHER ROUNDUP FOR NEBRASKA
NATIONAL WEATHER SERVICE OMAHA NE
1100 AM CST FRI FEB 27 2015

NOTES: SATELLITE DATA IS BEING USED TO AUGMENT CLOUD COVER ABOVE
       12000 FEET.
       "FAIR" INDICATES FEW OR NO CLOUDS BELOW 12,000 FEET WITH NO
       SIGNIFICANT WEATHER AND/OR OBSTRUCTIONS TO VISIBILITY.

  * THESE STATIONS DO NOT REPORT WEATHER SUCH AS RAIN...SNOW OR FOG.

NEZ001>004-019>022-054>056-271800-
NEBRASKA PANHANDLE

CITY           SKY/WX    TMP DP  RH WIND       PRES   REMARKS
SCOTTSBLUFF    CLOUDY    15   6  67 SE15G23   30.14F WCI   0
ALLIANCE       CLOUDY    13   6  74 S17       30.17F WCI  -4
CHADRON        PTSUNNY   17   7  64 S21       30.18F WCI   0
KIMBALL        LGT SNOW  12   7  80 S20G26    30.05F WCI  -6
SIDNEY         LGT SNOW  12   6  77 S16       30.16F WCI  -5
$$

NEZ057>060-069>072-079>082-271800-
SOUTHWEST NEBRASKA

CITY           SKY/WX    TMP DP  RH WIND       PRES   REMARKS
NORTH PLATTE   PTSUNNY   14  -1  51 S13       30.37F WCI   0
IMPERIAL       CLOUDY    16   6  65 SE16      30.29F WCI   1
LEXINGTON      MOSUNNY   15   0  52 S10       30.44S WCI   2
MCCOOK         CLOUDY    18   1  47 SE16      30.41F WCI   3
OGALLALA       CLOUDY    15   6  68 S8        30.29F WCI   3
$$

NEZ005>010-023>029-035>040-094-271800-
NORTH CENTRAL NEBRASKA

CITY           SKY/WX    TMP DP  RH WIND       PRES   REMARKS
VALENTINE      SUNNY     15   0  51 S12G18    30.35F WCI   2
AINSWORTH      SUNNY     14   0  54 S12       30.36F WCI   0
BROKEN BOW     SUNNY     13  -1  54 S8        30.41F WCI   2
O`NEILL        SUNNY     14   2  57 SW8       30.46F WCI   3
ORD            SUNNY     13  -3  49 S5        30.46F WCI   5
THEDFORD       SUNNY     15  -1  49 S10G16    30.34F WCI   2
$$

NEZ041-046>049-061>064-073>077-083>087-271800-
SOUTH CENTRAL NEBRASKA

CITY           SKY/WX    TMP DP  RH WIND       PRES   REMARKS
GRAND ISLAND   SUNNY     14  -2  49 VRB3      30.53S
AURORA         SUNNY     12  -1  54 CALM      30.53S
HASTINGS       SUNNY     13  -2  51 SE6       30.50F WCI   4
HEBRON         SUNNY     13   0  56 CALM      30.58S
HOLDREGE       SUNNY     13  -2  51 S5        30.46F WCI   5
KEARNEY *      SUNNY     12   0  57 S9        30.48S WCI   0
YORK           SUNNY     10   0  61 CALM      30.55S
$$

NEZ011>018-030>034-042>045-271800-
NORTHEAST NEBRASKA

CITY           SKY/WX    TMP DP  RH WIND       PRES   REMARKS
NORFOLK        SUNNY     10  -3  55 VRB3      30.53F
ALBION         SUNNY     12  -1  54 S5        30.51F WCI   4
BLAIR          SUNNY      7  -3  63 N3        30.58F
COLUMBUS *     SUNNY     10  -8  44 CALM      30.57F
FREMONT        SUNNY     11  -1  59 CALM      30.60F
TEKAMAH        SUNNY      9   0  67 CALM      30.63S
WAYNE          SUNNY     10  -2  57 SW8       30.57S WCI  -2
$$

NEZ050>053-065>068-078-088>093-271800-
SOUTHEAST NEBRASKA

CITY           SKY/WX    TMP DP  RH WIND       PRES   REMARKS
LINCOLN        SUNNY     12   0  58 NE5       30.62F WCI   4
OMAHA EPPLEY   MOSUNNY   10   0  63 NE6       30.63F WCI   0
BEATRICE       SUNNY     10  -2  56 CALM      30.60S
FALLS CITY     SUNNY     11  -1  58 S5        30.65S WCI   3
NEBRASKA CITY  SUNNY     10  -3  55 CALM      30.62S
PLATTSMOUTH    SUNNY      9   0  65 CALM      30.61S
$$

NEZ044-045-051>053-067-271800-
OMAHA AREA

CITY           SKY/WX    TMP DP  RH WIND       PRES   REMARKS
OMAHA EPPLEY   MOSUNNY   10   0  63 NE6       30.63F WCI   0
BLAIR          SUNNY      7  -3  63 N3        30.58F
FREMONT        SUNNY     11  -1  59 CALM      30.60F
MILLARD        SUNNY     10  -2  56 CALM      30.63S
OFFUTT AFB     SUNNY     10  -1  60 SW6       30.62F WCI   1
PLATTSMOUTH    SUNNY      9   0  65 CALM      30.61S
WAHOO          FAIR      10  -2  60 CALM      30.61S
$$



USA.gov is the U.S. government's official web portal to all federal, state and local government web resources and services.